WXM80 ListenWXM80 Stop

You find our weather info also at:

UK Metoffice

WeatherCloud

Weather Underground

Northeastern Weather Network

AWEKAS

Citizen Weather Observer Program (CWOP)

HAMweather, WeatherForYou, PWS Weather


Weather Underground History page Text

Daily Summary for November 1, 2017 Units:  English    Metric   Both
« Previous Day
Next Day »
Daily Weekly Monthly Yearly Custom
  High: Low: Average:
Temperature: 56.3 °F 40.6 °F 49.4 °F
Dew Point: 49.1 °F 35.6 °F 42.3 °F
Humidity: 92 % 64 % 77 %
Wind Speed: 3.4 mph 0.0 mph 0.3 mph
Wind Gust: 9.2 mph - -
Wind:- - South
Pressure: 30.40 in 30.28 in -
Precipitation: 0.00 in    
Historical Graphs
 
 
Tabular Data for November 1, 2017
Time Temperature Dew Point Pressure Wind Wind Speed Wind Gust Humidity Rainfall Rate (Hourly)
00:03 48.3 °F 36.7 °F 30.28 in West 1.8 mph 3.5 mph 64 % 0.00 in
00:08 48.3 °F 37.1 °F 30.29 in WSW 3.4 mph 4.6 mph 65 % 0.00 in
00:13 48.2 °F 37.0 °F 30.29 in WSW 2.2 mph 3.5 mph 65 % 0.00 in
00:19 48.1 °F 36.9 °F 30.29 in WSW 1.6 mph 3.5 mph 65 % 0.00 in
00:24 48.1 °F 36.9 °F 30.29 in West 0.2 mph 3.5 mph 65 % 0.00 in
00:29 48.0 °F 36.8 °F 30.30 in WSW 0.4 mph 4.0 mph 65 % 0.00 in
00:34 47.9 °F 36.3 °F 30.30 in WNW 3.2 mph 8.1 mph 64 % 0.00 in
00:39 47.9 °F 36.3 °F 30.30 in WNW 0.1 mph 5.8 mph 64 % 0.00 in
00:44 47.8 °F 36.6 °F 30.30 in Calm   2.3 mph 65 % 0.00 in
00:49 47.7 °F 36.5 °F 30.29 in West 1.6 mph 5.8 mph 65 % 0.00 in
00:54 47.6 °F 36.4 °F 30.30 in WNW 1.9 mph 9.2 mph 65 % 0.00 in
00:59 47.6 °F 36.4 °F 30.29 in West 1.8 mph 4.6 mph 65 % 0.00 in
01:04 47.5 °F 36.3 °F 30.29 in WNW 0.3 mph 3.5 mph 65 % 0.00 in
01:09 47.4 °F 36.2 °F 30.30 in WNW 0.8 mph 3.5 mph 65 % 0.00 in
01:14 47.4 °F 36.2 °F 30.30 in West 0.5 mph 4.6 mph 65 % 0.00 in
01:19 47.3 °F 36.1 °F 30.30 in WNW 2.2 mph 6.0 mph 65 % 0.00 in
01:24 47.2 °F 36.0 °F 30.30 in WNW 1.3 mph 8.0 mph 65 % 0.00 in
01:29 47.1 °F 35.9 °F 30.30 in WNW 2.5 mph 4.6 mph 65 % 0.00 in
01:34 47.1 °F 35.9 °F 30.29 in NNW 1.2 mph 3.5 mph 65 % 0.00 in
01:39 47.0 °F 36.2 °F 30.30 in NW 0.5 mph 1.2 mph 66 % 0.00 in
01:44 47.0 °F 36.2 °F 30.30 in WNW 1.2 mph 3.0 mph 66 % 0.00 in
01:49 46.9 °F 36.1 °F 30.30 in WNW 1.0 mph 1.2 mph 66 % 0.00 in
01:55 46.8 °F 36.0 °F 30.30 in North 1.6 mph 3.5 mph 66 % 0.00 in
02:00 46.8 °F 36.0 °F 30.31 in West 1.3 mph 3.0 mph 66 % 0.00 in
02:05 46.7 °F 35.9 °F 30.32 in Calm   1.2 mph 66 % 0.00 in
02:10 46.6 °F 35.8 °F 30.31 in WNW 0.2 mph 4.6 mph 66 % 0.00 in
02:15 46.5 °F 36.1 °F 30.31 in Calm     67 % 0.00 in
02:20 46.4 °F 36.0 °F 30.32 in Calm   1.2 mph 67 % 0.00 in
02:25 46.4 °F 36.0 °F 30.32 in Calm   1.2 mph 67 % 0.00 in
02:30 46.3 °F 35.9 °F 30.32 in Calm     67 % 0.00 in
02:35 46.2 °F 36.2 °F 30.32 in NW 0.9 mph 4.0 mph 68 % 0.00 in
02:40 46.0 °F 36.0 °F 30.32 in North 0.9 mph 3.5 mph 68 % 0.00 in
02:45 45.9 °F 35.9 °F 30.32 in Calm     68 % 0.00 in
02:50 45.8 °F 35.8 °F 30.32 in Calm     68 % 0.00 in
02:55 45.7 °F 35.7 °F 30.32 in WNW 0.6 mph 4.0 mph 68 % 0.00 in
03:00 45.6 °F 35.6 °F 30.32 in NNW 1.2 mph 3.5 mph 68 % 0.00 in
03:05 45.5 °F 35.9 °F 30.32 in NW 1.1 mph 5.0 mph 69 % 0.00 in
03:10 45.4 °F 35.8 °F 30.32 in North 2.0 mph 4.6 mph 69 % 0.00 in
03:15 45.4 °F 35.8 °F 30.32 in North 0.2 mph 2.3 mph 69 % 0.00 in
03:20 45.3 °F 35.7 °F 30.32 in North 0.1 mph 3.5 mph 69 % 0.00 in
03:25 45.3 °F 35.7 °F 30.32 in NNE 2.2 mph 4.0 mph 69 % 0.00 in
03:30 45.3 °F 35.7 °F 30.32 in NNE 0.3 mph 1.2 mph 69 % 0.00 in
03:35 45.3 °F 36.1 °F 30.32 in Calm   1.0 mph 70 % 0.00 in
03:40 45.3 °F 36.1 °F 30.32 in NNW 0.5 mph 2.3 mph 70 % 0.00 in
03:45 45.3 °F 36.4 °F 30.32 in North 2.7 mph 3.5 mph 71 % 0.00 in
03:50 45.2 °F 36.4 °F 30.32 in Calm     71 % 0.00 in
03:56 45.2 °F 36.7 °F 30.31 in Calm   2.0 mph 72 % 0.00 in
04:01 45.1 °F 36.6 °F 30.32 in Calm   2.3 mph 72 % 0.00 in
04:06 45.0 °F 36.9 °F 30.32 in Calm   1.2 mph 73 % 0.00 in
04:11 44.9 °F 37.1 °F 30.32 in Calm     74 % 0.00 in
04:16 44.8 °F 37.0 °F 30.32 in North 0.4 mph 1.2 mph 74 % 0.00 in
04:21 44.5 °F 37.1 °F 30.31 in Calm     75 % 0.00 in
04:26 44.3 °F 36.9 °F 30.31 in North 0.1 mph 1.2 mph 75 % 0.00 in
04:31 44.0 °F 36.9 °F 30.32 in Calm   1.2 mph 76 % 0.00 in
04:36 43.8 °F 36.7 °F 30.31 in Calm   1.2 mph 76 % 0.00 in
04:41 43.5 °F 36.8 °F 30.31 in Calm     77 % 0.00 in
04:46 43.3 °F 36.9 °F 30.31 in North 0.5 mph 1.2 mph 78 % 0.00 in
04:48 43.3 °F 36.9 °F 30.31 in Calm   1.2 mph 78 % 0.00 in
04:53 43.1 °F 37.0 °F 30.31 in North 1.0 mph 2.3 mph 79 % 0.00 in
04:58 42.8 °F 36.7 °F 30.32 in North 0.8 mph 1.2 mph 79 % 0.00 in
05:03 42.6 °F 36.9 °F 30.32 in Calm     80 % 0.00 in
05:08 42.5 °F 37.1 °F 30.32 in North 0.1 mph 1.2 mph 81 % 0.00 in
05:13 42.3 °F 36.9 °F 30.32 in Calm   1.2 mph 81 % 0.00 in
05:18 42.2 °F 37.1 °F 30.32 in Calm     82 % 0.00 in
05:23 42.2 °F 37.4 °F 30.32 in North 0.5 mph 2.3 mph 83 % 0.00 in
05:24 42.2 °F 37.4 °F 30.32 in Calm   2.3 mph 83 % 0.00 in
05:29 42.1 °F 37.3 °F 30.32 in Calm     83 % 0.00 in
05:34 42.0 °F 37.5 °F 30.32 in Calm   1.2 mph 84 % 0.00 in
05:39 42.0 °F 37.5 °F 30.32 in Calm     84 % 0.00 in
05:44 41.9 °F 37.4 °F 30.32 in Calm     84 % 0.00 in
05:49 41.8 °F 37.3 °F 30.33 in Calm   1.2 mph 84 % 0.00 in
05:54 41.8 °F 37.3 °F 30.33 in Calm     84 % 0.00 in
05:59 41.7 °F 37.2 °F 30.33 in Calm     84 % 0.00 in
06:04 41.6 °F 37.1 °F 30.33 in Calm     84 % 0.00 in
06:09 41.5 °F 37.0 °F 30.33 in Calm     84 % 0.00 in
06:14 41.4 °F 36.9 °F 30.34 in Calm     84 % 0.00 in
06:16 41.3 °F 37.1 °F 30.34 in Calm     85 % 0.00 in
06:21 41.2 °F 37.0 °F 30.34 in Calm     85 % 0.00 in
06:26 41.1 °F 36.9 °F 30.34 in Calm     85 % 0.00 in
06:31 41.1 °F 37.2 °F 30.34 in Calm     86 % 0.00 in
06:36 41.0 °F 37.1 °F 30.34 in Calm     86 % 0.00 in
06:41 40.9 °F 37.0 °F 30.34 in Calm     86 % 0.00 in
06:46 40.9 °F 37.3 °F 30.34 in Calm     87 % 0.00 in
06:51 40.8 °F 37.2 °F 30.35 in Calm     87 % 0.00 in
06:56 40.7 °F 37.1 °F 30.35 in Calm     87 % 0.00 in
07:02 40.7 °F 37.1 °F 30.36 in North 0.1 mph 1.0 mph 87 % 0.00 in
07:07 40.7 °F 37.4 °F 30.36 in Calm     88 % 0.00 in
07:12 40.6 °F 37.3 °F 30.36 in Calm     88 % 0.00 in
07:17 40.6 °F 37.3 °F 30.35 in Calm     88 % 0.00 in
07:21 40.6 °F 37.3 °F 30.36 in Calm     88 % 0.00 in
07:26 40.6 °F 37.3 °F 30.36 in Calm     88 % 0.00 in
07:32 40.6 °F 37.3 °F 30.36 in Calm     88 % 0.00 in
07:37 40.6 °F 37.3 °F 30.36 in Calm     88 % 0.00 in
07:42 40.6 °F 37.6 °F 30.36 in Calm     89 % 0.00 in
07:47 40.7 °F 37.7 °F 30.36 in Calm     89 % 0.00 in
07:52 40.8 °F 37.8 °F 30.36 in Calm     89 % 0.00 in
07:57 40.9 °F 37.9 °F 30.37 in Calm     89 % 0.00 in
08:02 41.0 °F 38.3 °F 30.38 in Calm     90 % 0.00 in
08:07 41.2 °F 38.8 °F 30.38 in Calm     91 % 0.00 in
08:12 41.4 °F 39.0 °F 30.38 in Calm     91 % 0.00 in
08:17 41.6 °F 39.2 °F 30.38 in Calm     91 % 0.00 in
08:22 41.8 °F 39.4 °F 30.38 in Calm     91 % 0.00 in
08:27 42.0 °F 39.8 °F 30.39 in Calm     92 % 0.00 in
08:32 42.2 °F 39.8 °F 30.39 in Calm     91 % 0.00 in
08:37 42.4 °F 40.2 °F 30.39 in Calm     92 % 0.00 in
08:42 42.6 °F 40.4 °F 30.39 in Calm     92 % 0.00 in
08:47 42.8 °F 40.4 °F 30.39 in Calm     91 % 0.00 in
08:52 43.1 °F 40.7 °F 30.40 in Calm     91 % 0.00 in
08:57 43.3 °F 40.8 °F 30.40 in Calm     91 % 0.00 in
09:02 43.5 °F 41.0 °F 30.39 in Calm     91 % 0.00 in
09:07 43.8 °F 41.3 °F 30.40 in Calm     91 % 0.00 in
09:12 44.1 °F 41.6 °F 30.40 in Calm     91 % 0.00 in
09:17 44.5 °F 42.0 °F 30.40 in Calm     91 % 0.00 in
09:22 44.7 °F 42.2 °F 30.40 in Calm     91 % 0.00 in
09:27 45.1 °F 42.3 °F 30.40 in Calm     90 % 0.00 in
09:32 45.5 °F 42.4 °F 30.40 in Calm     89 % 0.00 in
09:37 45.9 °F 42.5 °F 30.40 in Calm   1.2 mph 88 % 0.00 in
09:42 46.2 °F 42.5 °F 30.40 in SE 0.6 mph 3.5 mph 87 % 0.00 in
09:47 46.6 °F 42.6 °F 30.40 in Calm     86 % 0.00 in
09:52 46.9 °F 42.9 °F 30.40 in Calm     86 % 0.00 in
09:57 47.2 °F 42.6 °F 30.40 in Calm     84 % 0.00 in
10:02 47.5 °F 42.9 °F 30.40 in Calm     84 % 0.00 in
10:07 47.8 °F 43.2 °F 30.39 in Calm     84 % 0.00 in
10:12 48.1 °F 43.5 °F 30.39 in Calm     84 % 0.00 in
10:17 48.3 °F 43.4 °F 30.39 in Calm     83 % 0.00 in
10:22 48.7 °F 43.5 °F 30.39 in Calm     82 % 0.00 in
10:27 48.9 °F 43.6 °F 30.39 in Calm     82 % 0.00 in
10:32 49.2 °F 43.6 °F 30.39 in Calm     81 % 0.00 in
10:38 49.4 °F 43.5 °F 30.39 in Calm     80 % 0.00 in
10:43 49.6 °F 43.7 °F 30.40 in Calm     80 % 0.00 in
10:48 49.9 °F 43.6 °F 30.39 in Calm     79 % 0.00 in
10:53 50.1 °F 43.8 °F 30.39 in Calm     79 % 0.00 in
10:58 50.3 °F 43.4 °F 30.40 in Calm     77 % 0.00 in
11:03 50.6 °F 42.6 °F 30.40 in SE 0.8 mph 2.3 mph 74 % 0.00 in
11:08 50.9 °F 42.6 °F 30.40 in Calm     73 % 0.00 in
11:13 51.2 °F 42.5 °F 30.40 in Calm     72 % 0.00 in
11:18 51.4 °F 43.0 °F 30.40 in Calm     73 % 0.00 in
11:23 51.5 °F 43.1 °F 30.40 in Calm     73 % 0.00 in
11:28 51.7 °F 44.0 °F 30.39 in Calm     75 % 0.00 in
11:33 51.9 °F 43.2 °F 30.39 in Calm     72 % 0.00 in
11:38 52.0 °F 42.5 °F 30.39 in Calm     70 % 0.00 in
11:43 52.1 °F 43.0 °F 30.39 in Calm     71 % 0.00 in
11:48 52.3 °F 43.9 °F 30.39 in Calm     73 % 0.00 in
11:53 52.4 °F 44.0 °F 30.39 in Calm     73 % 0.00 in
11:58 52.7 °F 43.9 °F 30.38 in Calm     72 % 0.00 in
12:03 52.9 °F 43.0 °F 30.38 in Calm     69 % 0.00 in
12:08 53.2 °F 43.7 °F 30.38 in Calm     70 % 0.00 in
12:13 53.4 °F 44.2 °F 30.38 in Calm     71 % 0.00 in
12:18 53.6 °F 44.4 °F 30.38 in Calm     71 % 0.00 in
12:23 53.8 °F 45.0 °F 30.38 in Calm     72 % 0.00 in
12:28 54.1 °F 46.0 °F 30.38 in Calm     74 % 0.00 in
12:33 54.2 °F 46.1 °F 30.38 in Calm     74 % 0.00 in
12:38 54.4 °F 45.2 °F 30.37 in Calm     71 % 0.00 in
12:43 54.6 °F 45.4 °F 30.38 in Calm     71 % 0.00 in
12:48 54.7 °F 44.7 °F 30.37 in Calm     69 % 0.00 in
12:53 54.8 °F 45.2 °F 30.37 in Calm     70 % 0.00 in
12:58 54.8 °F 44.0 °F 30.37 in Calm     67 % 0.00 in
13:04 54.9 °F 44.5 °F 30.37 in SE 0.1 mph   68 % 0.00 in
13:09 54.9 °F 44.1 °F 30.38 in SE 0.4 mph 2.3 mph 67 % 0.00 in
13:14 54.9 °F 44.5 °F 30.37 in Calm   1.2 mph 68 % 0.00 in
13:19 55.0 °F 45.4 °F 30.37 in Calm     70 % 0.00 in
13:24 55.0 °F 45.0 °F 30.37 in Calm     69 % 0.00 in
13:29 55.0 °F 45.0 °F 30.37 in Calm   1.2 mph 69 % 0.00 in
13:34 55.0 °F 45.0 °F 30.38 in Calm     69 % 0.00 in
13:39 55.0 °F 45.0 °F 30.37 in NNE 1.1 mph 3.5 mph 69 % 0.00 in
13:44 55.0 °F 44.6 °F 30.37 in NNE 0.1 mph 1.2 mph 68 % 0.00 in
13:49 55.0 °F 44.2 °F 30.37 in ENE 1.3 mph 3.5 mph 67 % 0.00 in
13:54 55.0 °F 43.4 °F 30.37 in Calm     65 % 0.00 in
13:59 55.0 °F 43.8 °F 30.37 in Calm   3.5 mph 66 % 0.00 in
14:05 55.1 °F 43.5 °F 30.37 in NNE 0.4 mph 1.2 mph 65 % 0.00 in
14:10 55.1 °F 44.3 °F 30.37 in NE 0.4 mph 2.3 mph 67 % 0.00 in
14:15 55.3 °F 44.5 °F 30.37 in NE 0.8 mph 2.3 mph 67 % 0.00 in
14:20 55.3 °F 43.7 °F 30.37 in Calm   1.2 mph 65 % 0.00 in
14:25 55.4 °F 44.2 °F 30.37 in NE 0.4 mph 1.2 mph 66 % 0.00 in
14:30 55.4 °F 44.2 °F 30.37 in NE 0.4 mph 1.2 mph 66 % 0.00 in
14:35 55.5 °F 44.7 °F 30.37 in Calm     67 % 0.00 in
14:40 55.5 °F 45.5 °F 30.36 in Calm     69 % 0.00 in
14:45 55.5 °F 45.5 °F 30.36 in Calm     69 % 0.00 in
14:50 55.5 °F 45.1 °F 30.36 in NE 0.4 mph 2.3 mph 68 % 0.00 in
14:55 55.4 °F 45.0 °F 30.36 in Calm     68 % 0.00 in
15:00 55.4 °F 45.8 °F 30.36 in NE 1.2 mph 3.5 mph 70 % 0.00 in
15:05 55.4 °F 46.5 °F 30.36 in ENE 0.5 mph 2.3 mph 72 % 0.00 in
15:10 55.5 °F 45.5 °F 30.36 in Calm     69 % 0.00 in
15:15 55.6 °F 45.6 °F 30.36 in Calm     69 % 0.00 in
15:20 55.7 °F 46.4 °F 30.36 in ENE 0.1 mph 1.2 mph 71 % 0.00 in
15:25 55.9 °F 46.3 °F 30.36 in ENE 0.1 mph 1.2 mph 70 % 0.00 in
15:30 56.0 °F 47.8 °F 30.36 in NE 0.1 mph 1.2 mph 74 % 0.00 in
15:35 56.2 °F 48.0 °F 30.36 in NE 0.4 mph 1.2 mph 74 % 0.00 in
15:40 56.3 °F 48.1 °F 30.36 in NE 0.5 mph 1.2 mph 74 % 0.00 in
15:45 56.3 °F 48.1 °F 30.36 in ENE 0.3 mph 1.2 mph 74 % 0.00 in
15:50 56.3 °F 48.5 °F 30.36 in ENE 0.7 mph 3.5 mph 75 % 0.00 in
15:55 56.2 °F 48.4 °F 30.35 in ENE 0.6 mph 3.5 mph 75 % 0.00 in
16:00 56.2 °F 48.7 °F 30.35 in ENE 0.2 mph 1.2 mph 76 % 0.00 in
16:05 56.1 °F 48.6 °F 30.35 in ENE 1.3 mph 1.3 mph 76 % 0.00 in
16:10 56.0 °F 48.5 °F 30.35 in ENE 0.4 mph 1.2 mph 76 % 0.00 in
16:16 56.0 °F 48.9 °F 30.35 in ENE 1.0 mph 5.0 mph 77 % 0.00 in
16:21 55.9 °F 49.1 °F 30.34 in ENE 1.0 mph 4.0 mph 78 % 0.00 in
16:26 55.8 °F 48.7 °F 30.35 in Calm   1.0 mph 77 % 0.00 in
16:31 55.8 °F 48.0 °F 30.35 in Calm   1.0 mph 75 % 0.00 in
16:36 55.8 °F 48.7 °F 30.35 in East 1.0 mph 1.0 mph 77 % 0.00 in
16:41 55.7 °F 47.9 °F 30.35 in Calm   1.2 mph 75 % 0.00 in
16:46 55.7 °F 48.2 °F 30.35 in Calm   1.0 mph 76 % 0.00 in
16:51 55.6 °F 48.5 °F 30.34 in Calm   2.0 mph 77 % 0.00 in
16:56 55.5 °F 48.1 °F 30.35 in Calm   2.0 mph 76 % 0.00 in
17:01 55.4 °F 48.3 °F 30.34 in Calm     77 % 0.00 in
17:06 55.3 °F 48.2 °F 30.34 in East 0.1 mph 1.2 mph 77 % 0.00 in
17:11 55.2 °F 48.1 °F 30.34 in Calm   1.2 mph 77 % 0.00 in
17:16 55.1 °F 48.0 °F 30.34 in Calm     77 % 0.00 in
17:21 55.0 °F 47.9 °F 30.34 in Calm     77 % 0.00 in
17:26 54.9 °F 47.5 °F 30.34 in Calm   1.0 mph 76 % 0.00 in
17:31 54.8 °F 47.0 °F 30.33 in Calm     75 % 0.00 in
17:36 54.6 °F 46.8 °F 30.34 in Calm     75 % 0.00 in
17:41 54.6 °F 46.5 °F 30.34 in Calm     74 % 0.00 in
17:46 54.5 °F 46.7 °F 30.34 in Calm     75 % 0.00 in
17:51 54.3 °F 46.2 °F 30.34 in Calm     74 % 0.00 in
17:56 54.2 °F 45.7 °F 30.34 in Calm     73 % 0.00 in
18:01 54.0 °F 45.5 °F 30.34 in Calm     73 % 0.00 in
18:06 53.9 °F 45.8 °F 30.34 in Calm     74 % 0.00 in
18:11 53.7 °F 45.6 °F 30.34 in Calm   1.2 mph 74 % 0.00 in
18:16 53.5 °F 46.1 °F 30.34 in Calm   1.2 mph 76 % 0.00 in
18:21 53.4 °F 46.0 °F 30.34 in Calm     76 % 0.00 in
18:26 53.2 °F 45.8 °F 30.33 in Calm     76 % 0.00 in
18:31 53.1 °F 45.7 °F 30.34 in Calm     76 % 0.00 in
18:36 53.0 °F 45.6 °F 30.34 in Calm     76 % 0.00 in
18:41 52.9 °F 45.5 °F 30.35 in Calm     76 % 0.00 in
18:46 52.8 °F 45.4 °F 30.35 in Calm     76 % 0.00 in
18:51 52.7 °F 45.3 °F 30.35 in Calm     76 % 0.00 in
18:56 52.6 °F 45.2 °F 30.35 in Calm     76 % 0.00 in
19:01 52.5 °F 45.2 °F 30.35 in Calm     76 % 0.00 in
19:06 52.4 °F 45.4 °F 30.35 in Calm     77 % 0.00 in
19:11 52.4 °F 45.7 °F 30.35 in Calm     78 % 0.00 in
19:16 52.3 °F 46.0 °F 30.35 in Calm     79 % 0.00 in
19:21 52.2 °F 45.9 °F 30.35 in Calm   1.2 mph 79 % 0.00 in
19:27 52.1 °F 46.1 °F 30.35 in Calm     80 % 0.00 in
19:32 52.0 °F 46.0 °F 30.35 in Calm   1.0 mph 80 % 0.00 in
19:37 51.9 °F 45.9 °F 30.35 in Calm     80 % 0.00 in
19:42 51.8 °F 45.8 °F 30.35 in Calm     80 % 0.00 in
19:47 51.7 °F 45.7 °F 30.35 in Calm     80 % 0.00 in
19:52 51.6 °F 45.6 °F 30.35 in Calm     80 % 0.00 in
19:57 51.5 °F 45.5 °F 30.35 in Calm     80 % 0.00 in
20:02 51.4 °F 45.4 °F 30.35 in Calm   1.2 mph 80 % 0.00 in
20:07 51.4 °F 45.8 °F 30.35 in East 0.7 mph 2.0 mph 81 % 0.00 in
20:12 51.4 °F 45.8 °F 30.35 in East 1.3 mph 3.5 mph 81 % 0.00 in
20:17 51.4 °F 45.8 °F 30.35 in SE 2.1 mph 3.5 mph 81 % 0.00 in
20:22 51.5 °F 45.9 °F 30.35 in SE 0.8 mph 2.3 mph 81 % 0.00 in
20:27 51.6 °F 46.0 °F 30.34 in SE 0.7 mph 2.3 mph 81 % 0.00 in
20:32 51.7 °F 45.7 °F 30.34 in Calm   1.0 mph 80 % 0.00 in
20:37 51.9 °F 45.9 °F 30.34 in SE 0.5 mph 2.3 mph 80 % 0.00 in
20:42 52.0 °F 46.0 °F 30.34 in Calm   2.3 mph 80 % 0.00 in
20:47 52.2 °F 46.2 °F 30.33 in SE 0.7 mph 3.5 mph 80 % 0.00 in
20:52 52.3 °F 46.3 °F 30.33 in SE 0.8 mph 2.3 mph 80 % 0.00 in
20:57 52.4 °F 46.1 °F 30.33 in SE 0.9 mph 3.5 mph 79 % 0.00 in
21:02 52.5 °F 46.2 °F 30.33 in SE 0.5 mph 3.0 mph 79 % 0.00 in
21:07 52.5 °F 46.2 °F 30.33 in Calm   2.3 mph 79 % 0.00 in
21:12 52.5 °F 46.2 °F 30.34 in Calm   1.0 mph 79 % 0.00 in
21:17 52.5 °F 46.5 °F 30.34 in SE 0.7 mph 2.3 mph 80 % 0.00 in
21:22 52.4 °F 46.4 °F 30.34 in SE 0.2 mph 1.2 mph 80 % 0.00 in
21:27 52.4 °F 46.4 °F 30.34 in Calm     80 % 0.00 in
21:30 52.4 °F 46.4 °F 30.34 in SE 0.1 mph 1.2 mph 80 % 0.00 in
21:35 52.3 °F 46.3 °F 30.34 in Calm     80 % 0.00 in
21:40 52.3 °F 46.3 °F 30.34 in SE 0.2 mph 1.2 mph 80 % 0.00 in
21:45 52.2 °F 46.2 °F 30.34 in SE 0.1 mph 1.2 mph 80 % 0.00 in
21:50 52.1 °F 46.1 °F 30.33 in Calm     80 % 0.00 in
21:55 52.1 °F 46.4 °F 30.33 in Calm     81 % 0.00 in
22:00 52.0 °F 46.3 °F 30.33 in Calm     81 % 0.00 in
22:05 51.9 °F 46.3 °F 30.33 in Calm     81 % 0.00 in
22:10 51.9 °F 46.3 °F 30.33 in Calm     81 % 0.00 in
22:15 51.8 °F 46.5 °F 30.33 in Calm     82 % 0.00 in
22:20 51.7 °F 46.4 °F 30.33 in Calm     82 % 0.00 in
22:25 51.6 °F 46.3 °F 30.33 in Calm     82 % 0.00 in
22:30 51.6 °F 46.6 °F 30.33 in Calm     83 % 0.00 in
22:35 51.6 °F 47.2 °F 30.34 in Calm     85 % 0.00 in
22:40 51.6 °F 47.2 °F 30.33 in Calm     85 % 0.00 in
22:45 51.5 °F 47.1 °F 30.33 in Calm     85 % 0.00 in
22:50 51.5 °F 47.5 °F 30.32 in Calm     86 % 0.00 in
22:55 51.5 °F 47.5 °F 30.32 in Calm     86 % 0.00 in
23:00 51.4 °F 47.4 °F 30.33 in Calm     86 % 0.00 in
23:05 51.4 °F 47.4 °F 30.32 in Calm     86 % 0.00 in
23:10 51.3 °F 47.3 °F 30.32 in Calm     86 % 0.00 in
23:15 51.3 °F 47.3 °F 30.32 in Calm     86 % 0.00 in
23:20 51.2 °F 47.2 °F 30.32 in Calm     86 % 0.00 in
23:24 51.2 °F 47.2 °F 30.32 in Calm     86 % 0.00 in
23:30 51.1 °F 47.4 °F 30.32 in Calm     87 % 0.00 in
23:35 51.0 °F 47.3 °F 30.32 in Calm     87 % 0.00 in
23:39 51.0 °F 47.6 °F 30.32 in Calm     88 % 0.00 in
23:44 51.0 °F 47.6 °F 30.32 in Calm     88 % 0.00 in
23:50 51.1 °F 48.0 °F 30.32 in SE 0.2 mph 2.0 mph 89 % 0.00 in
23:55 51.1 °F 48.3 °F 30.32 in SE 1.1 mph 3.5 mph 90 % 0.00 in
Crab Meadow Weather
Compliments of Weather Underground - 3 mb

Script developed by  Jim McMurry - jmcmurry@mwt.net Adapted for the template by  Wim van der Kuil - Leuven-Template.eu

Recycling: An estimated 80,000,000 Hershey's Kisses are wrapped each day, using enough aluminum foil to cover over 50 acres of space -- that's almost 40 football fields. All that foil is recyclable, but not many people realize it.